[[{"header":{"parameterUnit":"m.s-1","parameterCategory":1,"la1":30.2991,"la2":30.254,"lo1":-89.0895,"lo2":-89.0444,"dy":0.0017,"dx":0.0017,"nx":28,"ny":28,"refTime":"2025-04-18T03:00:00:Z","depth":0,"parameterNumber":2,"parameterNumberName":"U-component_of_WINDS"},"data":[0,0,0,0,0,0,0,0,0,0,0,0,0,0,0,0,0,0,0,0,0,0,0,0,0,0,0,0,0,0,0,0,0,0,0,0,0,0,0,0,0,0,0,0,0,0,0,0,0,0,0,0,0,0,0,0,0,0,-3.8595,-3.8595,0,-3.8606,-3.8606,-3.8606,-3.8574,-3.8573,-3.8572,-3.8571,-3.8581,-3.8582,-3.8583,0,0,0,0,0,0,0,0,0,0,0,0,0,-3.8545,-3.8546,-3.8595,-3.8595,-3.8595,-3.8606,-3.8606,-3.8606,-3.8574,-3.8573,-3.8571,-3.857,-3.8581,-3.8582,-3.8583,0,0,0,0,0,0,0,0,0,0,0,0,0,-3.8563,-3.8547,-3.8595,-3.858,-3.8579,-3.8606,-3.8606,-3.8606,-3.8574,-3.8572,-3.8571,-3.857,-3.858,-3.8582,-3.8584,-3.8625,0,0,-3.8589,-3.859,0,0,0,0,0,0,0,0,-3.8562,-3.8564,-3.8582,-3.8581,-3.858,-3.8587,-3.8592,-3.8612,-3.8574,-3.8576,-3.8571,-3.8569,-3.8584,-3.8585,-3.8591,-3.8625,-3.8625,-3.8589,-3.859,-3.8591,-3.8592,0,0,0,0,0,0,0,-3.8561,-3.8564,-3.8599,-3.8583,-3.8581,-3.8573,-3.8574,-3.8596,-3.8588,-3.8576,-3.8573,-3.8575,-3.8583,-3.8589,-3.8591,-3.8626,-3.8589,-3.8591,-3.8592,-3.8593,-3.8693,-3.8695,0,0,0,0,0,0,-3.8561,-3.8563,-3.8599,-3.8599,-3.8567,-3.8575,-3.8576,-3.8586,-3.8588,-3.8587,-3.8576,-3.8574,-3.8587,-3.8589,-3.8591,-3.8638,-3.8591,-3.8593,-3.8594,-3.8692,-3.8694,-3.8696,0,0,0,0,0,0,-3.856,-3.8565,-3.8598,-3.8581,-3.8584,-3.8578,-3.8589,-3.8587,-3.8593,-3.8588,-3.8587,-3.8584,-3.8586,-3.8588,-3.8616,-3.8638,-3.8594,-3.8595,-3.869,-3.8692,-3.8695,-3.8733,0,0,0,0,0,0,-3.8559,-3.8565,-3.858,-3.8581,-3.8585,-3.8624,-3.8591,-3.8588,-3.8596,-3.8593,-3.8595,-3.8594,-3.8585,-3.8614,-3.8618,-3.864,-3.8597,-3.8688,-3.8691,-3.8694,-3.873,-3.8737,-3.8742,0,0,0,0,0,-3.8557,-3.8591,-3.8581,-3.8586,-3.8605,-3.8625,-3.8627,-3.8616,-3.8598,-3.8613,-3.8611,-3.8594,-3.8635,-3.8617,-3.8622,-3.8644,-3.8686,-3.869,-3.8694,-3.8727,-3.8735,-3.8742,0,0,0,0,0,0,-3.8592,-3.859,-3.858,-3.8614,-3.862,-3.862,-3.8638,-3.8625,-3.8636,-3.8632,-3.8618,-3.8619,-3.8649,-3.865,-3.8629,-3.8683,-3.8658,-3.8662,-3.8682,-3.8689,-3.8695,-3.8694,-3.8598,0,0,0,0,0,-3.8604,-3.8621,-3.8618,-3.8649,-3.8652,-3.8645,-3.8654,-3.8645,-3.865,-3.8652,-3.8651,-3.8657,-3.8671,-3.868,-3.8693,-3.8731,-3.873,-3.8748,-3.8754,-3.876,-3.8763,-3.8782,-3.879,-3.8707,-3.8707,-3.8707,0,0,-3.8628,-3.8629,-3.864,-3.8656,-3.8659,-3.8677,-3.8647,-3.8667,-3.868,-3.8655,-3.8681,-3.8681,-3.8686,-3.8719,-3.8733,-3.872,-3.8786,-3.8764,-3.8768,-3.8769,-3.8786,-3.8794,-3.8801,-3.871,-3.8709,-3.8709,0,0,-3.868,-3.8683,-3.8709,-3.8713,-3.8719,-3.8714,-3.872,-3.8722,-3.872,-3.8747,-3.8728,-3.8743,-3.8768,-3.8772,-3.8778,-3.8833,-3.8817,-3.8838,-3.8869,-3.8888,-3.8894,-3.89,-3.8918,-3.8925,-3.8842,-3.8842,-3.8842,0,-3.8709,-3.8734,-3.8723,-3.8744,-3.8751,-3.8731,-3.8756,-3.8761,-3.877,-3.8775,-3.8761,-3.8792,-3.8794,-3.8827,-3.884,-3.8846,-3.8852,-3.8836,-3.8894,-3.89,-3.8905,-3.8922,-3.8929,-3.8844,-3.8844,-3.8844,-3.8843,0,-3.8769,-3.8788,-3.8807,-3.8817,-3.8827,-3.885,-3.8842,-3.8853,-3.8844,-3.884,-3.8867,-3.8869,-3.8882,-3.8889,-3.888,-3.8921,-3.8912,-3.8897,-3.887,-3.8915,-3.8931,-3.8938,-3.8847,-3.8846,-3.8846,-3.8845,0,0,-3.8842,-3.8846,-3.8853,-3.8857,-3.8863,-3.8876,-3.8899,-3.8911,-3.892,-3.8928,-3.8946,-3.8968,-3.8953,-3.8959,-3.8951,-3.8968,-3.9009,-3.8949,-3.8949,-3.8959,-3.9053,-3.9063,-3.9071,-3.9,-3.9001,-3.9002,-3.9052,0,-3.8892,-3.893,-3.8921,-3.8959,-3.8975,-3.8956,-3.8975,-3.898,-3.8978,-3.8991,-3.8989,-3.9004,-3.8984,-3.8988,-3.9004,-3.9001,-3.9028,-3.8998,-3.9015,-3.9016,-3.9013,-3.908,-3.9091,-3.9138,-3.9058,-3.9059,-3.906,0,-3.8956,-3.8966,-3.9005,-3.9008,-3.9014,-3.9032,-3.9042,-3.9056,-3.9061,-3.9058,-3.9066,-3.9054,-3.9076,-3.9051,-3.908,-3.9059,-3.9066,-3.9067,-3.9068,-3.9068,-3.9039,-3.908,-3.9152,-3.9159,-3.907,-3.9069,-3.9068,0,-3.9003,-3.9027,-3.9053,-3.9058,-3.9061,-3.9074,-3.9076,-3.908,-3.9088,-3.9098,-3.9103,-3.9115,-3.9121,-3.9131,-3.9122,-3.9105,-3.9153,-3.9127,-3.915,-3.915,-3.9159,-3.9158,-3.9232,-3.9167,-3.9167,-3.9166,-3.9166,0,-3.906,-3.9084,-3.9075,-3.9091,-3.9117,-3.9107,-3.9133,-3.9133,-3.9137,-3.9152,-3.9137,-3.9152,-3.9141,-3.9155,-3.9149,-3.9173,-3.9177,-3.9174,-3.9172,-3.9175,-3.9175,-3.9178,-3.9174,-3.9168,-3.9168,-3.9168,-3.9167,0,-3.9117,-3.9111,-3.9138,-3.914,-3.9141,-3.916,-3.9161,-3.9176,-3.9173,-3.9193,-3.9197,-3.9192,-3.9207,-3.92,-3.9217,-3.9213,-3.9243,-3.9238,-3.9241,-3.9239,-3.9262,-3.9259,-3.9339,-3.9348,-3.9278,-3.9279,-3.928,0,-3.9152,-3.917,-3.9174,-3.9183,-3.9186,-3.9202,-3.921,-3.9201,-3.921,-3.9217,-3.9231,-3.9245,-3.9256,-3.9281,-3.9279,-3.9291,-3.9284,-3.9312,-3.9286,-3.9288,-3.9283,-3.9281,-3.9283,-3.9316,-3.9317,-3.9317,-3.9318,0,-3.9215,-3.9212,-3.9224,-3.9236,-3.9247,-3.9255,-3.9263,-3.9271,-3.9262,-3.9273,-3.9289,-3.9297,-3.9314,-3.9328,-3.9338,-3.934,-3.9327,-3.9326,-3.9332,-3.9334,-3.9335,-3.9333,-3.9254,-3.9324,-3.9324,-3.9323,-3.9323,-3.9322,-3.9262,-3.9277,-3.9281,-3.9296,-3.93,-3.9308,-3.9321,-3.932,-3.9333,-3.9346,-3.934,-3.9358,-3.9362,-3.9376,-3.9379,-3.9393,-3.9382,-3.9391,-3.9392,-3.9394,-3.9396,-3.9334,-3.9395,-3.9395,-3.9395,-3.9394,-3.9394,0,-3.9323,-3.9325,-3.9338,-3.9349,-3.9361,-3.9348,-3.9356,-3.9366,-3.9382,-3.9388,-3.9399,-3.9416,-3.943,-3.9429,-3.9441,-3.9452,-3.9446,-3.9455,-3.9454,-3.9454,-3.9406,-3.9399,-3.946,-3.946,-3.946,-3.946,-3.946,-3.946,-3.9356,-3.938,-3.9377,-3.9404,-3.9406,-3.9423,-3.9429,-3.9435,-3.9439,-3.946,-3.9471,-3.947,-3.9473,-3.9486,-3.9497,-3.9497,-3.9501,-3.9512,-3.9509,-3.9464,-3.9457,-3.9451,-3.9445,-3.9514,-3.9514,-3.9556,-3.9556,-3.9556]},{"header":{"parameterUnit":"m.s-1","parameterCategory":1,"la1":30.2991,"la2":30.254,"lo1":-89.0895,"lo2":-89.0444,"dy":0.0017,"dx":0.0017,"nx":28,"ny":28,"refTime":"2025-04-18T03:00:00:Z","depth":0,"parameterNumber":3,"parameterNumberName":"V-component_of_WINDS"},"data":[0,0,0,0,0,0,0,0,0,0,0,0,0,0,0,0,0,0,0,0,0,0,0,0,0,0,0,0,0,0,0,0,0,0,0,0,0,0,0,0,0,0,0,0,0,0,0,0,0,0,0,0,0,0,0,0,0,0,4.9874,4.9876,0,5.0052,5.0054,5.0056,5.0126,5.0126,5.0125,5.0125,5.0299,5.0304,5.0309,0,0,0,0,0,0,0,0,0,0,0,0,0,4.9591,4.9595,4.9874,4.9876,4.9879,5.0051,5.0054,5.0056,5.0126,5.0126,5.0125,5.0125,5.0298,5.0304,5.031,0,0,0,0,0,0,0,0,0,0,0,0,0,4.9735,4.9597,4.9874,4.9935,4.9942,5.0051,5.0054,5.0057,5.0127,5.0126,5.0125,5.0125,5.0296,5.0303,5.031,5.037,0,0,5.0334,5.0337,0,0,0,0,0,0,0,0,4.9727,4.9745,4.9923,4.9931,4.9939,5.0067,5.0018,5.0162,5.0127,5.0056,5.0125,5.0124,5.0222,5.0235,5.027,5.0378,5.0385,5.0334,5.0339,5.0342,5.0344,0,0,0,0,0,0,0,4.9717,4.9738,4.9944,4.9926,4.9935,4.9951,4.9971,5.0045,5.014,5.0062,5.0068,5.0088,5.0226,5.0262,5.0274,5.0388,5.0334,5.0341,5.0345,5.0348,5.0556,5.0557,0,0,0,0,0,0,4.9698,4.9729,4.9939,4.995,4.9829,4.9957,4.9979,5.0026,5.014,5.0156,5.0089,5.0091,5.025,5.0266,5.0281,5.036,5.0342,5.0349,5.0353,5.0555,5.0557,5.0558,0,0,0,0,0,0,4.9691,4.9716,4.9931,4.9841,4.987,4.9963,5.0015,5.003,5.0067,5.016,5.0176,5.0109,5.025,5.027,5.0348,5.0367,5.0352,5.0359,5.0554,5.0556,5.0557,5.0518,0,0,0,0,0,0,4.9683,4.9713,4.9737,4.9841,4.9875,4.9997,5.0016,5.0034,5.008,5.0085,5.0183,5.0199,5.0251,5.0337,5.0356,5.0377,5.0365,5.0553,5.0555,5.0557,5.0518,5.0518,5.0518,0,0,0,0,0,4.9672,4.9717,4.9738,4.9763,4.9908,4.9998,5.0017,5.0079,5.0081,5.0107,5.0167,5.0196,5.0362,5.0344,5.0366,5.039,5.0552,5.0554,5.0557,5.0518,5.0518,5.0518,0,0,0,0,0,0,4.961,4.9732,4.9757,4.9837,4.9907,5.001,5.0044,5.0076,5.0145,5.0146,5.0217,5.0239,5.0311,5.0358,5.0337,5.0455,5.0459,5.0466,5.0422,5.0423,5.0422,5.041,5.0371,0,0,0,0,0,4.9606,4.9671,4.9773,4.9834,4.9868,4.995,4.9991,5.0033,5.0108,5.0137,5.0203,5.0272,5.0341,5.0384,5.0452,5.0525,5.0548,5.0552,5.0552,5.0551,5.0556,5.0601,5.0604,5.0565,5.0565,5.0565,0,0,4.9597,4.9672,4.9708,4.9823,4.9883,4.9948,4.9974,5.0041,5.009,5.0147,5.0226,5.0277,5.0359,5.0435,5.0472,5.0477,5.0573,5.0554,5.0553,5.0559,5.0603,5.0607,5.061,5.0567,5.0566,5.0566,0,0,4.9615,4.9678,4.9737,4.9797,4.9888,4.9942,4.9956,5.0056,5.0092,5.0174,5.0218,5.0276,5.0391,5.045,5.0494,5.0537,5.0566,5.0556,5.0556,5.0598,5.0601,5.0604,5.0621,5.0626,5.0561,5.0561,5.0561,0,4.9592,4.9694,4.9762,4.9829,4.9878,4.9936,4.9995,5.0049,5.0156,5.0189,5.0193,5.0341,5.04,5.0492,5.0503,5.0537,5.0555,5.0546,5.0596,5.06,5.0603,5.062,5.0626,5.0559,5.0559,5.0559,5.056,0,4.9663,4.9733,4.9769,4.9876,4.9929,4.9991,5.0067,5.0113,5.015,5.0204,5.0286,5.036,5.0445,5.0469,5.0504,5.0567,5.0567,5.0582,5.0588,5.0604,5.0622,5.0629,5.0557,5.0557,5.0558,5.0558,0,0,4.9645,4.9791,4.9803,4.9853,4.9959,5.0013,5.0078,5.0165,5.0203,5.0275,5.0332,5.0429,5.0446,5.0496,5.0538,5.0575,5.0607,5.0586,5.0589,5.0589,5.0682,5.0671,5.0677,5.0627,5.0628,5.063,5.0676,0,4.9678,4.9801,4.9865,4.9959,5.0025,5.0082,5.0139,5.0209,5.0261,5.0323,5.038,5.0449,5.0464,5.0495,5.0534,5.0595,5.0627,5.0592,5.068,5.0682,5.0659,5.0686,5.0674,5.0714,5.0683,5.0684,5.0685,0,4.9734,4.981,4.9911,5.0013,5.0043,5.0093,5.0179,5.0238,5.0319,5.0354,5.0412,5.0455,5.0524,5.0525,5.0622,5.0597,5.0637,5.0672,5.0675,5.0686,5.0685,5.0699,5.0728,5.0735,5.0696,5.0695,5.0694,0,4.9713,4.984,4.9919,4.9959,5.0078,5.0113,5.0163,5.0244,5.0293,5.0366,5.0399,5.0478,5.0522,5.0582,5.0644,5.0639,5.0736,5.0741,5.0767,5.0766,5.0786,5.0784,5.0823,5.0809,5.0809,5.0809,5.0808,0,4.9744,4.9805,4.9911,4.9959,5.0029,5.0101,5.0168,5.0222,5.0294,5.0353,5.0405,5.0459,5.0538,5.0602,5.0651,5.0725,5.0743,5.0774,5.0786,5.077,5.0766,5.0798,5.0797,5.081,5.081,5.081,5.0809,0,4.9733,4.9807,4.9896,5.0003,5.0032,5.0078,5.0169,5.0218,5.0273,5.0347,5.0369,5.0455,5.0533,5.0602,5.0703,5.0736,5.0813,5.0827,5.0787,5.0794,5.0817,5.0814,5.0878,5.0891,5.0866,5.0866,5.0866,0,4.9749,4.9798,4.9911,4.9956,5.0007,5.0078,5.0129,5.0202,5.0253,5.0351,5.0387,5.047,5.0539,5.0661,5.0731,5.081,5.0827,5.0845,5.0839,5.0822,5.083,5.0827,5.0833,5.0844,5.0844,5.0844,5.0844,0,4.977,4.9805,4.9878,4.9965,5.0025,5.0096,5.0168,5.0201,5.0287,5.0341,5.0424,5.0478,5.0585,5.0666,5.0753,5.0803,5.0838,5.0845,5.0856,5.084,5.0816,5.0831,5.0788,5.0843,5.0843,5.0843,5.0844,5.0844,4.9774,4.9821,4.9909,4.9989,5.0052,5.0119,5.0172,5.0235,5.0306,5.0401,5.0438,5.0522,5.0603,5.0725,5.0775,5.0841,5.0847,5.0861,5.0866,5.0869,5.0867,5.0804,5.0857,5.0857,5.0857,5.0857,5.0857,0,4.9799,4.9859,4.9933,5.0034,5.0098,5.0128,5.021,5.0261,5.0335,5.0409,5.0479,5.0574,5.0653,5.0731,5.0815,5.0853,5.0871,5.0872,5.0871,5.0882,5.0856,5.0839,5.0856,5.0856,5.0856,5.0856,5.0856,5.0856,4.9819,4.9902,4.9947,5.0061,5.0121,5.0206,5.0251,5.0313,5.0373,5.0478,5.0546,5.0598,5.0674,5.0764,5.0838,5.0859,5.0888,5.0885,5.091,5.0884,5.0883,5.0883,5.0868,5.0891,5.0891,5.0932,5.0932,5.0933]}]]